Miscellaneous Local Product
Issued by NWS North Platte, NE

Home | Current Version | Previous Version | Text Only | Print | Product List | Glossary On
Versions: 1 2 3 4 5 6 7 8 9 10 11 12 13 14 15 16 17 18 19 20 21 22 23 24 25 26 27 28 29 30 31 32 33 34 35 36 37 38 39 40 41 42 43 44 45 46 47 48 49 50
000
AXUS43 KLBF 222010
MISLBF


WESTERN AND NORTH CENTRAL NEBRASKA HOURLY WEATHER ROUNDUP
NATIONAL WEATHER SERVICE NORTH PLATTE NE
300 PM CDT THU JUN 22 2017

NOTE: "FAIR" INDICATES FEW OR NO CLOUDS BELOW 12,000 FEET WITH NO
SIGNIFICANT WEATHER AND/OR OBSTRUCTIONS TO VISIBILITY.

NOTE: STATIONS NOT REPORTING VARIABLES SUCH AS SKY/WEATHER OR
PRESSURE ARE PROVIDED BY RAWS AND APRS NETWORKS AND ARE NOT UNDER
NATIONAL WEATHER SERVICE QUALITY CONTROL.

...OBSERVATIONS IN AND NEAR THE EASTERN PANHANDLE OF NEBRASKA...

CITY           SKY/WX    TMP DP  RH WIND       PRES   REMARKS
PINE RIDGE     MOSUNNY   76  52  43 N10G22    29.92S
GORDON         CLOUDY    72  53  50 N15       29.91F
CHADRON        SUNNY     77  48  35 NE10      29.92S
ALLIANCE       PTSUNNY   76  56  49 N17G24    29.91S
SIDNEY         SUNNY     81  53  37 NE24G35   29.90F
CRESCENT LAKE    N/A     76  56  50 NE13G23     N/A
$$

...OBSERVATIONS IN NORTHERN NEBRASKA AND FAR SOUTHERN SOUTH DAKOTA...

CITY           SKY/WX    TMP DP  RH WIND       PRES   REMARKS
WINNER         CLOUDY    75  50  41 NE10G16   29.85F
VALENTINE      CLOUDY    71  50  47 N16       29.88S
THEDFORD       CLOUDY    76  58  53 N16G26    29.85S
AINSWORTH      CLOUDY    72  57  58 N18G24    29.85S
O`NEILL        CLOUDY    80  61  52 N15G22    29.79R
ORD            PTSUNNY   82  60  47 NE21G30   29.72R
BROKEN BOW     MOSUNNY   81  60  48 NE24G32   29.76R
VALENTINE NWR    N/A     72  58  60 N13G25      N/A
HALSEY           N/A     78  57  47 N10G21      N/A
BUTTE            N/A     67  58  73 N12G20      N/A
CHAMBERS         N/A     84  58  41 N6          N/A
EWING            N/A     82  61  48 NE7G18      N/A
$$

...OBSERVATIONS IN SOUTHWEST NEBRASKA AND FAR NORTHEAST COLORADO...

CITY           SKY/WX    TMP DP  RH WIND       PRES   REMARKS
WRAY           FAIR      88  50  27 N22G30    29.82F
IMPERIAL       SUNNY     87  56  34 N23G32    29.80S
OGALLALA       SUNNY     85  55  36 NE17G26   29.84S
NORTH PLATTE   SUNNY     86  58  38 N22G30    29.78R
MCCOOK         SUNNY     96  62  32 N23G30    29.70R HX  97
LEXINGTON      MOSUNNY   87  67  50 N23       29.72R
STAPLETON        N/A     78  59  51 NE8G20      N/A
GOTHENBURG       N/A     82  60  47 N17         N/A
CALLAWAY         N/A     80  63  55 NE20        N/A
$$

...OBSERVATIONS IN CENTRAL LINCOLN COUNTY AREA...

CITY           SKY/WX    TMP DP  RH WIND       PRES   REMARKS
N.P. AIRPORT   SUNNY     86  58  38 N22G30    29.78R
N.P. DOWNTOWN    N/A     82  59  45 NE13G24     N/A
N.P. HILLCREST   N/A     81  59  46 NE24G35     N/A
$$

...SOME OBSERVATIONS FROM AROUND THE REGION...

CITY           SKY/WX    TMP DP  RH WIND       PRES   REMARKS
DENVER         CLOUDY    87  47  24 NE18      29.93F
LIMON          CLOUDY    86  46  24 N17G28    29.93R
ASPEN          CLOUDY    84  32  15 CALM      30.09F
LARAMIE        MOSUNNY   80  38  22 NW17      30.04F
CASPER         SUNNY     73  36  25 VRB6      30.01F
CHEYENNE       CLOUDY    75  41  29 N18G25    30.01R
SCOTTSBLUFF    MOSUNNY   81  49  32 N16G23    29.91F
GRAND ISLAND   CLOUDY    88  66  48 E8        29.65R HX  90
OMAHA          PTSUNNY   89  68  49 S12       29.62F HX  93
SIOUX FALLS    CLOUDY    74  66  76 N8        29.76R
PIERRE         SUNNY     76  46  34 N8        29.83S
RAPID CITY     SUNNY     74  41  30 NW14G23   29.94S
BISMARCK       SUNNY     78  33  19 W14G29    29.81F
KANSAS CITY    PTSUNNY   86  73  65 S15       29.70F HX  93
HILL CITY      SUNNY    102  52  18 VRB7      29.64R HX  99
WICHITA        MOSUNNY   91  66  43 S18       29.66F HX  93
DODGE CITY     SUNNY     92  64  39 S14       29.70F HX  93
OKLAHOMA CITY  MOSUNNY   91  60  35 SE12      29.69F HX  90
DALLAS         CLOUDY    87  73  62 NE6       29.67F HX  94
AMARILLO       SUNNY     96  55  25 S3        29.79F HX  94
$$




USA.gov is the U.S. government's official web portal to all federal, state and local government web resources and services.